Greensboro, NC

10:05 PM EST on December 22, 2014 (GMT -0500)
Piedmont Triad International | Change Station
CLOSE
Current Station
Airport
Location: Greensboro,
Elevation: 886 ft
Nearby Weather Stations

Elev 886 ft 36.10 °N, 79.94 °W | Updated 11 minutes ago

Overcast
Overcast
35 °F
Feels Like 29 °F
N
8
Wind Variable Wind from NNE

Today
High -- | Low -- °F
--% Chance of Precip.
Yesterday
High -- | Low -- °F
Precip. -- in
7:26 AM 5:08 PM
New Moon, 2% visible
Pressure 30.05 in
Visibility 1.2 miles
Clouds Overcast 300 ft
Windchill 29 °F
Dew Point 34 °F
Humidity 96%
Rainfall 0.10 in
Snow Depth Not available.
UV 0 out of 12
Pollen .30 out of 12
Air Quality Not available.
Flu Activity Not available.
METAR KGSO 230254Z 03007KT 1 1/4SM -RA BR OVC003 02/01 A3004 RMK AO2 DZE11RAB35 SLP176 P0000 60000 T00170011 56012

More Conditions Fewer Conditions

Pressure 30.05 in
Visibility 1.2 miles
Clouds Overcast 300 ft
Windchill 29 °F
Dew Point 34 °F
Humidity 96%
Rainfall 0.10 in
Snow Depth Not available.
UV 0 out of 12
Pollen .30 out of 12
Air Quality Not available.
Flu Activity Not available.
METAR KGSO 230254Z 03007KT 1 1/4SM -RA BR OVC003 02/01 A3004 RMK AO2 DZE11RAB35 SLP176 P0000 60000 T00170011 56012

More Conditions Fewer Conditions

10-Day Weather Forecast

Almanac

Astronomy

Dec. 22, 2014 Rise Set
Actual Time
Civil Twilight
Nautical Twilight
Astronomical Twilight
Moon
Length of Visible Light
Length of Day
Tomorrow will be .
, % of the Moon is Illuminated

Today's Extremes

State Highs State Lows

Community

WunderPhotos

Upload Photos

1,779,763 photos uploaded!

WunderBlogs® & News

Nearby

Air Quality

  Air Quality AQ Index Pollutant
Not available.

Snow Depth

Station Depth Elevation

Earthquake Activity

City Distance Mag. Time & Date
Minimum magnitude displayed is 2.5.

Coastal Water Temperatures

Place Temperature

Nearby Weather Stations